This is the latest recevied weather packets stored in our database for station/object N0EDB-13. If no packets are shown the sender has not sent any weather packets the latest 10 day(s).
| Time | Temp. | Humidity | Pressure | Rain* | Wind** | Luminosity | Snow |
|---|---|---|---|---|---|---|---|
| 1777565504 | 8.89° C | 51% | 1513.7 hPa | 0 mm | - | 356 W/m² | - |
| 1777565203 | 8.89° C | 51% | 1513.9 hPa | 0 mm | - | 325 W/m² | - |
| 1777564903 | 8.89° C | 50% | 1514.3 hPa | 0 mm | - | 311 W/m² | - |
| 1777564603 | 8.89° C | 52% | 1515.1 hPa | 0 mm | - | 335 W/m² | - |
| 1777564302 | 8.33° C | 53% | 1515.9 hPa | 0 mm | - | 336 W/m² | - |
| 1777564002 | 8.33° C | 52% | 1515.9 hPa | 0 mm | - | 309 W/m² | - |
| 1777563702 | 8.33° C | 52% | 1515.6 hPa | 0 mm | - | 304 W/m² | - |
| 1777563401 | 8.33° C | 53% | 1516.1 hPa | 0 mm | - | 325 W/m² | - |
| 1777563100 | 8.33° C | 52% | 1516.3 hPa | 0 mm | - | 329 W/m² | - |
| 1777562800 | 7.78° C | 53% | 1516.8 hPa | 0 mm | - | 330 W/m² | - |
| 1777562499 | 7.78° C | 54% | 1517.2 hPa | 0 mm | - | 303 W/m² | - |
| 1777562199 | 7.78° C | 52% | 1516.7 hPa | 0 mm | - | 275 W/m² | - |
| 1777561899 | 7.78° C | 53% | 1517.2 hPa | 0 mm | - | 267 W/m² | - |
| 1777561599 | 7.78° C | 55% | 1517.7 hPa | 0 mm | - | 251 W/m² | - |
| 1777561298 | 7.78° C | 54% | 1517.8 hPa | 0 mm | - | 214 W/m² | - |
| 1777560997 | 7.78° C | 54% | 1517.8 hPa | 0 mm | - | 190 W/m² | - |
| 1777560696 | 7.78° C | 54% | 1517.9 hPa | 0 mm | - | 218 W/m² | - |
| 1777560395 | 7.78° C | 55% | 1518.2 hPa | 0 mm | - | 262 W/m² | - |
| 1777560094 | 7.78° C | 55% | 1518.4 hPa | 0 mm | - | 244 W/m² | - |
| 1777559793 | 7.22° C | 55% | 1519 hPa | 0 mm | - | 247 W/m² | - |
| 1777559493 | 7.22° C | 56% | 1519.5 hPa | 0 mm | - | 221 W/m² | - |
| 1777559192 | 7.22° C | 56% | 1519.6 hPa | 0 mm | - | 189 W/m² | - |
| 1777558891 | 7.22° C | 55% | 1519.5 hPa | 0 mm | - | 180 W/m² | - |
| 1777558590 | 7.22° C | 55% | 1519.6 hPa | 0 mm | - | 177 W/m² | - |
| 1777558290 | 7.22° C | 57% | 1519.8 hPa | 0 mm | - | 161 W/m² | - |
* Rain latest hour (hover to see other rain measurements)
** Current wind speed in m/s (hover to see current wind gust speed)